[[{"header":{"parameterUnit":"m.s-1","parameterCategory":2,"la1":30.2991,"la2":30.254,"lo1":-89.0895,"lo2":-89.0444,"dy":0.0017,"dx":0.0017,"nx":28,"ny":28,"refTime":"2025-06-11T03:00:00:Z","depth":"0","parameterNumber":2,"parameterNumberName":"U-component_of_CURRENTS"},"data":[0,0,0,0,0,0,0,0,0,0,0,0,0,0,0,0,0,0,0,0,0,0,0,0,0,0,0,0,0,0,0,0,0,0,0,0,0,0,0,0,0,0,0,0,0,0,0,0,0,0,0,0,0,0,0,0,0,0,0.3837,0.3838,0,0.388,0.3881,0.3881,0.3854,0.3853,0.3852,0.3851,0.39,0.3903,0.3905,0,0,0,0,0,0,0,0,0,0,0,0,0,0.3739,0.3741,0.3837,0.3838,0.3839,0.388,0.3881,0.3881,0.3854,0.3853,0.3852,0.3851,0.39,0.3902,0.3905,0,0,0,0,0,0,0,0,0,0,0,0,0,0.3779,0.3741,0.3837,0.3833,0.3833,0.388,0.3881,0.3881,0.3855,0.3853,0.3852,0.385,0.3899,0.3902,0.3905,0.3955,0,0,0.3915,0.3917,0,0,0,0,0,0,0,0,0.3777,0.3782,0.3833,0.3833,0.3834,0.3863,0.3864,0.3907,0.3855,0.3843,0.3851,0.385,0.3892,0.3896,0.3902,0.3957,0.3959,0.3916,0.3918,0.3919,0.392,0,0,0,0,0,0,0,0.3774,0.378,0.3851,0.3834,0.3835,0.3832,0.3835,0.3872,0.3873,0.3844,0.3843,0.3853,0.3891,0.3899,0.3903,0.396,0.3916,0.3919,0.3921,0.3922,0.4178,0.4183,0,0,0,0,0,0,0.3777,0.3778,0.385,0.3853,0.3805,0.3835,0.3839,0.3853,0.3872,0.3875,0.3855,0.3852,0.3894,0.3899,0.3905,0.4058,0.3919,0.3922,0.3924,0.4174,0.418,0.4185,0,0,0,0,0,0,0.3775,0.3783,0.3848,0.3818,0.3827,0.3838,0.3854,0.3854,0.3869,0.3881,0.3882,0.387,0.3893,0.39,0.3956,0.4055,0.3924,0.3927,0.4168,0.4175,0.4182,0.4304,0,0,0,0,0,0,0.3772,0.3782,0.3794,0.3819,0.3829,0.39,0.3856,0.3856,0.3879,0.3876,0.3895,0.3897,0.3893,0.3951,0.3959,0.4058,0.3929,0.4162,0.4171,0.418,0.4294,0.4314,0.4332,0,0,0,0,0,0.3768,0.3798,0.3795,0.3804,0.3845,0.3903,0.3909,0.3908,0.3881,0.3911,0.3916,0.3897,0.4016,0.3956,0.3965,0.4067,0.4157,0.4169,0.4179,0.4285,0.431,0.4332,0,0,0,0,0,0,0.3759,0.3799,0.3796,0.3834,0.3875,0.39,0.3923,0.3921,0.3947,0.3939,0.3933,0.3939,0.4041,0.4036,0.397,0.4174,0.4095,0.4108,0.4174,0.4197,0.4216,0.4297,0.3932,0,0,0,0,0,0.3765,0.3798,0.3836,0.387,0.389,0.3907,0.3928,0.3934,0.3959,0.3967,0.3984,0.4022,0.4096,0.4123,0.4176,0.4264,0.43,0.4347,0.4366,0.4382,0.446,0.456,0.4595,0.422,0.422,0.422,0,0,0.377,0.3797,0.3815,0.3871,0.3894,0.397,0.3916,0.3961,0.4044,0.3972,0.4074,0.4086,0.4136,0.4247,0.4295,0.4249,0.4508,0.4396,0.4409,0.448,0.4575,0.4611,0.4644,0.4228,0.4226,0.4225,0,0,0.3812,0.3824,0.3871,0.3924,0.3977,0.4008,0.4028,0.407,0.4104,0.4191,0.4187,0.4269,0.4334,0.4419,0.4465,0.463,0.4608,0.463,0.4788,0.4882,0.4914,0.4942,0.5022,0.5057,0.4633,0.4634,0.4634,0,0.3813,0.3892,0.3896,0.3973,0.4045,0.4037,0.4137,0.4184,0.4243,0.4314,0.4245,0.4423,0.445,0.4641,0.4707,0.4683,0.4706,0.4681,0.4906,0.4935,0.4962,0.5038,0.5074,0.4641,0.464,0.4639,0.4639,0,0.3902,0.3982,0.4022,0.4129,0.4202,0.4285,0.4363,0.4434,0.4459,0.4516,0.4675,0.4694,0.4805,0.4832,0.4825,0.5048,0.4993,0.4913,0.4838,0.5007,0.5076,0.5112,0.4651,0.4649,0.4646,0.4645,0,0,0.3879,0.4051,0.4069,0.417,0.4303,0.4376,0.4534,0.4696,0.479,0.4858,0.5006,0.5155,0.5133,0.5191,0.5174,0.5272,0.5474,0.5183,0.5184,0.5252,0.5672,0.5526,0.5549,0.5397,0.5404,0.541,0.5637,0,0.3958,0.4148,0.4214,0.4421,0.4545,0.4627,0.4768,0.4909,0.4986,0.5112,0.5203,0.5307,0.5274,0.5289,0.5407,0.545,0.5577,0.5421,0.5515,0.552,0.5358,0.5591,0.5297,0.5465,0.5672,0.5678,0.5682,0,0.4042,0.4172,0.4384,0.4612,0.4664,0.4769,0.4997,0.5114,0.5299,0.5346,0.5479,0.5501,0.5711,0.5589,0.5835,0.5716,0.5757,0.5775,0.5781,0.5645,0.5443,0.5337,0.5522,0.5286,0.5736,0.5732,0.5728,0,0.4082,0.4303,0.4486,0.4569,0.4797,0.4903,0.5009,0.5194,0.5304,0.5478,0.5547,0.5743,0.5818,0.5935,0.6003,0.5923,0.6218,0.6089,0.6021,0.6008,0.5791,0.5746,0.5756,0.631,0.631,0.6309,0.6308,0,0.4199,0.4344,0.4504,0.4618,0.4812,0.4936,0.5119,0.5237,0.5388,0.5511,0.5641,0.5747,0.5905,0.606,0.6104,0.6194,0.631,0.6148,0.6096,0.582,0.5778,0.5582,0.5506,0.6317,0.6316,0.6314,0.6312,0,0.428,0.4377,0.4586,0.4793,0.4849,0.4985,0.5168,0.5268,0.5399,0.5552,0.5611,0.5827,0.6013,0.616,0.6348,0.6305,0.6201,0.6391,0.6056,0.5961,0.5615,0.5557,0.5493,0.5346,0.6371,0.637,0.6368,0,0.4376,0.4484,0.4683,0.4759,0.4855,0.5027,0.5116,0.5268,0.5342,0.5572,0.5629,0.5881,0.5998,0.6248,0.6252,0.6351,0.6172,0.6104,0.5927,0.5648,0.5548,0.5363,0.5232,0.5689,0.5682,0.5677,0.5672,0,0.4556,0.4578,0.4722,0.4835,0.4934,0.5038,0.5151,0.5205,0.534,0.5447,0.5549,0.5665,0.5912,0.5892,0.6041,0.6032,0.5754,0.5987,0.5797,0.515,0.4861,0.4669,0.5482,0.5622,0.5627,0.5631,0.5634,0.5636,0.4654,0.4731,0.4817,0.4912,0.4983,0.4957,0.4951,0.5025,0.508,0.5119,0.5348,0.5399,0.5504,0.5661,0.5639,0.5336,0.5436,0.5124,0.5127,0.5003,0.4716,0.5429,0.5424,0.5428,0.5431,0.5434,0.5436,0,0.4759,0.478,0.4871,0.4901,0.4864,0.4903,0.4892,0.479,0.4721,0.4869,0.4916,0.4906,0.4877,0.4915,0.4718,0.4496,0.4303,0.4342,0.4011,0.3964,0.4675,0.4489,0.4157,0.4158,0.4158,0.4158,0.4158,0.4159,0.4812,0.4857,0.4834,0.4736,0.4704,0.4515,0.4425,0.4304,0.4314,0.42,0.4168,0.4268,0.4325,0.4208,0.3899,0.3787,0.35,0.3334,0.3403,0.3853,0.3923,0.399,0.3794,0.3322,0.3321,0.2468,0.2461,0.2456]},{"header":{"parameterUnit":"m.s-1","parameterCategory":2,"la1":30.2991,"la2":30.254,"lo1":-89.0895,"lo2":-89.0444,"dy":0.0017,"dx":0.0017,"nx":28,"ny":28,"refTime":"2025-06-11T03:00:00:Z","depth":"0","parameterNumber":3,"parameterNumberName":"V-component_of_CURRENTS"},"data":[0,0,0,0,0,0,0,0,0,0,0,0,0,0,0,0,0,0,0,0,0,0,0,0,0,0,0,0,0,0,0,0,0,0,0,0,0,0,0,0,0,0,0,0,0,0,0,0,0,0,0,0,0,0,0,0,0,0,0.016,0.0159,0,0.0097,0.0096,0.0095,0.0047,0.0047,0.0047,0.0047,-0.004,-0.0042,-0.0045,0,0,0,0,0,0,0,0,0,0,0,0,0,0.0168,0.0168,0.016,0.0159,0.0159,0.0097,0.0096,0.0095,0.0047,0.0047,0.0047,0.0047,-0.004,-0.0042,-0.0045,0,0,0,0,0,0,0,0,0,0,0,0,0,0.0137,0.0168,0.016,0.0131,0.0128,0.0097,0.0096,0.0094,0.0047,0.0047,0.0047,0.0047,-0.0039,-0.0042,-0.0045,-0.0063,0,0,-0.0055,-0.0057,0,0,0,0,0,0,0,0,0.0139,0.0137,0.0135,0.0133,0.0129,0.0083,0.0067,0.0042,0.0047,0.0073,0.0047,0.0046,0.0001,-0.0005,-0.0022,-0.0067,-0.0071,-0.0056,-0.0058,-0.0059,-0.006,0,0,0,0,0,0,0,0.0141,0.0139,0.0131,0.0135,0.0131,0.0097,0.0092,0.0061,0.0035,0.0071,0.0068,0.0068,-0.0001,-0.0019,-0.0024,-0.0072,-0.0056,-0.0059,-0.0061,-0.0062,-0.0096,-0.0095,0,0,0,0,0,0,0.0161,0.0141,0.0133,0.013,0.0138,0.0097,0.0092,0.0095,0.0036,0.0028,0.0068,0.0066,-0.0013,-0.002,-0.0028,0.0015,-0.0059,-0.0062,-0.0064,-0.0097,-0.0096,-0.0095,0,0,0,0,0,0,0.0161,0.0161,0.0136,0.0136,0.0131,0.0098,0.0101,0.0094,0.0082,0.0035,0.0026,0.0065,-0.0013,-0.0023,-0.004,0.0009,-0.0064,-0.0067,-0.0099,-0.0097,-0.0096,0.0058,0,0,0,0,0,0,0.0162,0.0161,0.0167,0.0138,0.0132,0.013,0.0101,0.0093,0.0083,0.008,0.0029,0.0021,-0.0014,-0.0035,-0.0043,0.0003,-0.0069,-0.01,-0.0098,-0.0096,0.0051,0.0065,0.0076,0,0,0,0,0,0.0162,0.018,0.0168,0.0167,0.0142,0.0132,0.0125,0.0097,0.0084,0.0085,0.0055,0.0022,-0.0028,-0.0036,-0.0047,-0.0,-0.0101,-0.0099,-0.0096,0.0046,0.0062,0.0075,0,0,0,0,0,0,0.0187,0.0177,0.0162,0.0175,0.0159,0.0125,0.0125,0.0105,0.008,0.0078,0.003,0.002,0.0029,-0.0018,-0.0026,-0.0007,-0.0067,-0.0067,0.0044,0.0059,0.0071,0.0152,-0.0072,0,0,0,0,0,0.0196,0.0206,0.0185,0.0195,0.019,0.0157,0.0149,0.0132,0.0108,0.0097,0.0062,0.0032,0.0029,0.0018,-0.0006,-0.0004,-0.001,0.0018,0.0031,0.0042,0.0099,0.0118,0.0139,-0.0087,-0.0087,-0.0087,0,0,0.0209,0.0204,0.0209,0.0201,0.0183,0.02,0.0151,0.0148,0.0175,0.0092,0.0108,0.0072,0.0038,0.0053,0.0052,0.0022,0.0097,0.0045,0.0055,0.0107,0.0123,0.0146,0.0166,-0.0085,-0.0086,-0.0086,0,0,0.0251,0.0235,0.0262,0.0254,0.0242,0.0229,0.0234,0.0206,0.0206,0.0205,0.0175,0.0185,0.013,0.0151,0.0149,0.0212,0.0163,0.0176,0.0307,0.0324,0.0344,0.0362,0.0369,0.0387,0.0181,0.0182,0.0182,0,0.0268,0.0302,0.0266,0.029,0.031,0.0253,0.0299,0.0287,0.0258,0.0302,0.0228,0.0248,0.02,0.0293,0.0307,0.0251,0.0234,0.0258,0.0346,0.0363,0.0379,0.0382,0.0399,0.0189,0.0188,0.0188,0.0187,0,0.0331,0.0358,0.0374,0.0396,0.0408,0.0431,0.0424,0.0444,0.0427,0.0432,0.0495,0.0433,0.0466,0.0434,0.0385,0.0488,0.043,0.0362,0.0321,0.0412,0.0407,0.0423,0.02,0.0197,0.0195,0.0193,0,0,0.0378,0.0416,0.0422,0.0477,0.0474,0.0508,0.0564,0.0635,0.0722,0.0671,0.0791,0.0763,0.0741,0.0739,0.0681,0.0683,0.0752,0.0572,0.0569,0.0604,0.0781,0.0712,0.0721,0.0683,0.0687,0.069,0.073,0,0.0446,0.0539,0.0535,0.0643,0.0703,0.07,0.0785,0.0841,0.085,0.0935,0.092,0.0977,0.0852,0.0872,0.0865,0.0789,0.0801,0.0748,0.0669,0.0668,0.0616,0.074,0.0697,0.0727,0.0744,0.0747,0.0749,0,0.0519,0.0583,0.0697,0.0834,0.0865,0.0919,0.1078,0.1137,0.1233,0.1249,0.1296,0.1259,0.1308,0.1149,0.1116,0.1077,0.0966,0.0879,0.0876,0.0785,0.063,0.0638,0.0753,0.0522,0.0771,0.0769,0.0768,0,0.0608,0.0712,0.0825,0.0854,0.0976,0.1064,0.1141,0.1248,0.135,0.1446,0.1522,0.1539,0.1569,0.1449,0.1264,0.1195,0.1191,0.1069,0.0916,0.0908,0.0851,0.0832,0.0765,0.1066,0.1065,0.1065,0.1065,0,0.0702,0.0795,0.088,0.0942,0.1134,0.1177,0.1372,0.145,0.1578,0.1738,0.1691,0.1808,0.164,0.1598,0.1386,0.1222,0.1293,0.1002,0.0941,0.0896,0.0882,0.0657,0.0525,0.1067,0.1066,0.1066,0.1066,0,0.0783,0.0823,0.0969,0.1114,0.1174,0.131,0.1502,0.1642,0.1741,0.1939,0.1987,0.2046,0.2014,0.1818,0.1647,0.1407,0.1099,0.1139,0.1095,0.1029,0.0644,0.0523,0.0454,0.0369,0.1004,0.1002,0.1002,0,0.0838,0.0914,0.1082,0.1183,0.1248,0.1433,0.1576,0.1711,0.1849,0.2089,0.2207,0.2263,0.2334,0.207,0.1691,0.1374,0.1124,0.1059,0.0927,0.068,0.05,0.0423,0.0352,0.0901,0.0899,0.0898,0.0897,0,0.0952,0.0991,0.1106,0.1297,0.1446,0.163,0.1826,0.1965,0.2151,0.234,0.2573,0.266,0.2459,0.2167,0.1715,0.1436,0.0894,0.1019,0.0791,0.0471,0.0364,0.0231,0.08,0.0885,0.0886,0.0887,0.0888,0.0888,0.1031,0.1121,0.1248,0.1431,0.1596,0.1796,0.1969,0.2182,0.2443,0.2756,0.2818,0.3007,0.2509,0.1932,0.156,0.079,0.0848,0.052,0.0413,0.0375,0.0246,0.0791,0.0775,0.0775,0.0776,0.0776,0.0776,0,0.1133,0.1218,0.1383,0.1587,0.1753,0.1832,0.2121,0.2306,0.2617,0.2933,0.3155,0.2989,0.2389,0.1739,0.0725,0.0251,0.0089,-0.0017,-0.0141,-0.0171,0.0337,0.028,0.0123,0.0123,0.0124,0.0124,0.0124,0.0124,0.1196,0.1336,0.1399,0.1661,0.1809,0.2055,0.2221,0.2515,0.2787,0.3142,0.3279,0.3349,0.2717,0.1021,-0.0085,-0.0324,-0.0623,-0.0685,-0.0794,-0.0499,-0.0457,-0.0418,-0.0502,-0.082,-0.0821,-0.1256,-0.1261,-0.1265]}],[{"header":{"parameterUnit":"m.s-1","parameterCategory":2,"la1":30.2991,"la2":30.254,"lo1":-89.0895,"lo2":-89.0444,"dy":0.0017,"dx":0.0017,"nx":28,"ny":28,"refTime":"2025-06-11T03:00:00:Z","depth":"2","parameterNumber":2,"parameterNumberName":"U-component_of_CURRENTS"},"data":[0,0,0,0,0,0,0,0,0,0,0,0,0,0,0,0,0,0,0,0,0,0,0,0,0,0,0,0,0,0,0,0,0,0,0,0,0,0,0,0,0,0,0,0,0,0,0,0,0,0,0,0,0,0,0,0,0,0,0.3039,0.304,0,0.3031,0.303,0.303,0.2993,0.2993,0.2992,0.2992,0.3068,0.307,0.3072,0,0,0,0,0,0,0,0,0,0,0,0,0,0.2985,0.2986,0.3039,0.304,0.304,0.3031,0.303,0.303,0.2993,0.2993,0.2992,0.2992,0.3067,0.3069,0.3072,0,0,0,0,0,0,0,0,0,0,0,0,0,0.299,0.2986,0.3039,0.3026,0.3025,0.3031,0.303,0.3029,0.2993,0.2993,0.2992,0.2992,0.3066,0.3069,0.3073,0.31,0,0,0.3083,0.3084,0,0,0,0,0,0,0,0,0.299,0.2991,0.3027,0.3027,0.3026,0.3019,0.3039,0.306,0.2993,0.2998,0.2992,0.2992,0.3064,0.3067,0.3055,0.3104,0.3107,0.3083,0.3085,0.3086,0.3087,0,0,0,0,0,0,0,0.2989,0.2991,0.3029,0.3028,0.3027,0.3008,0.3008,0.3042,0.3029,0.2997,0.2996,0.3007,0.3063,0.3052,0.3057,0.3108,0.3083,0.3086,0.3088,0.3089,0.3337,0.3341,0,0,0,0,0,0,0.3007,0.2991,0.3029,0.3029,0.3014,0.301,0.3009,0.3016,0.3027,0.303,0.3007,0.3005,0.3047,0.3053,0.306,0.3211,0.3086,0.309,0.3092,0.3332,0.3338,0.3343,0,0,0,0,0,0,0.3005,0.301,0.303,0.3015,0.3017,0.3012,0.3019,0.3016,0.3023,0.3034,0.3037,0.3021,0.3047,0.3055,0.3124,0.3209,0.3091,0.3094,0.3327,0.3334,0.334,0.3438,0,0,0,0,0,0,0.3004,0.3009,0.3021,0.3017,0.3019,0.3055,0.302,0.3016,0.3032,0.303,0.3048,0.3052,0.3047,0.3119,0.3127,0.3212,0.3097,0.3321,0.333,0.3338,0.3429,0.3448,0.3463,0,0,0,0,0,0.3002,0.3022,0.3021,0.3026,0.3034,0.3058,0.3057,0.3046,0.3034,0.3048,0.3069,0.3053,0.318,0.3124,0.3133,0.3221,0.3317,0.3328,0.3337,0.3422,0.3444,0.3463,0,0,0,0,0,0,0.3007,0.3021,0.3019,0.3043,0.3061,0.3054,0.3069,0.3063,0.3085,0.3094,0.3089,0.3098,0.3185,0.32,0.3138,0.3324,0.3256,0.3268,0.3317,0.3338,0.3355,0.3467,0.31,0,0,0,0,0,0.3015,0.3035,0.3047,0.3071,0.3082,0.3079,0.3088,0.309,0.3109,0.3116,0.3139,0.3184,0.3233,0.328,0.331,0.3412,0.3441,0.3486,0.3503,0.3517,0.362,0.3695,0.3728,0.3377,0.3376,0.3376,0,0,0.3017,0.3039,0.3043,0.3075,0.3082,0.3116,0.3082,0.3116,0.3171,0.3128,0.3214,0.3226,0.3266,0.3367,0.3414,0.3396,0.3624,0.353,0.3541,0.3639,0.3709,0.3743,0.3773,0.3384,0.3382,0.3381,0,0,0.3055,0.306,0.3092,0.3101,0.3139,0.3158,0.3177,0.32,0.3237,0.3307,0.3306,0.3402,0.3442,0.3533,0.357,0.3719,0.3686,0.3707,0.3913,0.3981,0.4011,0.4038,0.4067,0.4096,0.3744,0.3744,0.3744,0,0.3061,0.3108,0.3107,0.3137,0.3193,0.3185,0.3262,0.3276,0.3329,0.3415,0.3354,0.3518,0.3546,0.373,0.3802,0.3765,0.3771,0.3812,0.4002,0.403,0.4055,0.408,0.411,0.375,0.3749,0.3749,0.3748,0,0.3105,0.3149,0.3172,0.3226,0.3291,0.3343,0.3398,0.3463,0.3508,0.3551,0.3717,0.3751,0.3873,0.3892,0.3902,0.4128,0.4057,0.3978,0.394,0.4096,0.4111,0.4141,0.3759,0.3757,0.3755,0.3753,0,0,0.3107,0.3193,0.3197,0.3249,0.3358,0.3398,0.3549,0.3701,0.3774,0.3852,0.4006,0.4151,0.4177,0.4234,0.4249,0.4368,0.4535,0.429,0.429,0.4307,0.4661,0.4432,0.444,0.4457,0.4464,0.447,0.4578,0,0.3157,0.3228,0.3319,0.3429,0.348,0.3591,0.3705,0.3838,0.3938,0.405,0.4186,0.4305,0.4291,0.4363,0.4478,0.4516,0.4629,0.4514,0.4527,0.453,0.4294,0.4475,0.4111,0.4163,0.4607,0.4612,0.4615,0,0.3182,0.3234,0.3362,0.3526,0.3567,0.3661,0.3892,0.402,0.4206,0.4261,0.4446,0.4496,0.4757,0.4658,0.4869,0.4779,0.4788,0.4797,0.4796,0.4599,0.436,0.4094,0.4199,0.4664,0.466,0.4657,0.4654,0,0.3151,0.3283,0.3406,0.3438,0.36,0.3749,0.3911,0.4112,0.4231,0.4473,0.4538,0.4754,0.4886,0.496,0.5012,0.4959,0.5156,0.5042,0.4851,0.483,0.4548,0.449,0.5218,0.5218,0.5217,0.5217,0.5217,0,0.317,0.3234,0.3374,0.3405,0.3538,0.3747,0.3938,0.4085,0.4318,0.4445,0.4672,0.4754,0.4979,0.5088,0.5084,0.5058,0.5204,0.4973,0.4883,0.4561,0.4507,0.4967,0.4937,0.5221,0.522,0.5219,0.5219,0,0.3112,0.3182,0.3276,0.3459,0.3517,0.364,0.3924,0.405,0.4281,0.447,0.4584,0.4842,0.4985,0.5109,0.5242,0.5142,0.5138,0.5081,0.468,0.4542,0.4749,0.4724,0.4918,0.4912,0.4907,0.4902,0.4899,0,0.3092,0.3144,0.3267,0.3342,0.3446,0.3628,0.3756,0.399,0.4131,0.4452,0.4529,0.4803,0.4834,0.4939,0.49,0.4872,0.5015,0.4514,0.4381,0.4848,0.474,0.4722,0.4704,0.403,0.4019,0.4011,0.4004,0,0.3121,0.3161,0.3253,0.3298,0.3422,0.354,0.3767,0.3779,0.4075,0.4195,0.4344,0.4432,0.4558,0.4388,0.4417,0.4337,0.4489,0.4331,0.4976,0.4133,0.401,0.3903,0.3915,0.3927,0.3934,0.394,0.3944,0.3947,0.3179,0.3171,0.3254,0.3305,0.3431,0.3491,0.3476,0.3661,0.3738,0.3838,0.4001,0.3978,0.404,0.3858,0.3738,0.3707,0.3993,0.3842,0.387,0.3907,0.3756,0.3628,0.3444,0.3449,0.3453,0.3457,0.346,0,0.3211,0.3209,0.328,0.3295,0.3381,0.3464,0.3497,0.34,0.336,0.347,0.3495,0.3185,0.3083,0.3169,0.2983,0.2966,0.2962,0.2869,0.2854,0.2932,0.3001,0.2805,0.2241,0.2237,0.2234,0.223,0,0,0.3202,0.3191,0.314,0.3195,0.3295,0.3174,0.3115,0.301,0.295,0.2775,0.273,0.2876,0.3023,0.2576,0.2531,0.2358,0.2623,0.2265,0.3245,0.3302,0.3366,0.3565,0.335,0,0,0,0,0]},{"header":{"parameterUnit":"m.s-1","parameterCategory":2,"la1":30.2991,"la2":30.254,"lo1":-89.0895,"lo2":-89.0444,"dy":0.0017,"dx":0.0017,"nx":28,"ny":28,"refTime":"2025-06-11T03:00:00:Z","depth":"2","parameterNumber":3,"parameterNumberName":"V-component_of_CURRENTS"},"data":[0,0,0,0,0,0,0,0,0,0,0,0,0,0,0,0,0,0,0,0,0,0,0,0,0,0,0,0,0,0,0,0,0,0,0,0,0,0,0,0,0,0,0,0,0,0,0,0,0,0,0,0,0,0,0,0,0,0,-0.0,-0.0,0,-0.0049,-0.005,-0.0051,-0.0082,-0.0082,-0.0082,-0.0082,-0.0148,-0.0149,-0.0151,0,0,0,0,0,0,0,0,0,0,0,0,0,0.0011,0.0011,0.0,-0.0,-0.0001,-0.0049,-0.005,-0.0051,-0.0082,-0.0082,-0.0082,-0.0082,-0.0147,-0.0149,-0.0151,0,0,0,0,0,0,0,0,0,0,0,0,0,-0.0013,0.0011,0.0,-0.0021,-0.0023,-0.0049,-0.005,-0.0051,-0.0082,-0.0082,-0.0082,-0.0082,-0.0146,-0.0149,-0.0151,-0.0166,0,0,-0.0159,-0.016,0,0,0,0,0,0,0,0,-0.0011,-0.0013,-0.0018,-0.002,-0.0022,-0.0058,-0.007,-0.009,-0.0082,-0.0061,-0.0082,-0.0082,-0.0118,-0.0123,-0.0134,-0.0169,-0.0172,-0.0159,-0.0161,-0.0162,-0.0163,0,0,0,0,0,0,0,-0.0009,-0.0012,-0.0021,-0.0018,-0.0021,-0.0047,-0.0051,-0.0074,-0.009,-0.0063,-0.0065,-0.0068,-0.012,-0.0132,-0.0136,-0.0173,-0.0159,-0.0162,-0.0163,-0.0164,-0.022,-0.022,0,0,0,0,0,0,0.0003,-0.001,-0.0019,-0.0022,-0.0015,-0.0047,-0.0051,-0.0048,-0.009,-0.0096,-0.0068,-0.0069,-0.0127,-0.0133,-0.0138,-0.0127,-0.0162,-0.0164,-0.0166,-0.022,-0.022,-0.022,0,0,0,0,0,0,0.0003,0.0003,-0.0017,-0.0017,-0.0021,-0.0047,-0.0044,-0.0049,-0.0056,-0.0093,-0.01,-0.007,-0.0127,-0.0135,-0.0151,-0.0131,-0.0166,-0.0168,-0.022,-0.022,-0.022,-0.0125,0,0,0,0,0,0,0.0004,0.0003,0.0008,-0.0015,-0.002,-0.0023,-0.0044,-0.005,-0.0058,-0.006,-0.0097,-0.0103,-0.0128,-0.0146,-0.0153,-0.0136,-0.017,-0.0221,-0.022,-0.022,-0.0129,-0.0122,-0.0117,0,0,0,0,0,0.0005,0.0019,0.0009,0.0007,-0.0012,-0.0023,-0.0027,-0.0048,-0.0058,-0.0056,-0.008,-0.0102,-0.0151,-0.0148,-0.0156,-0.0139,-0.0221,-0.022,-0.022,-0.0131,-0.0123,-0.0117,0,0,0,0,0,0,0.0027,0.0016,0.0005,0.0015,-0.0,-0.0027,-0.0027,-0.0043,-0.0061,-0.0062,-0.0098,-0.0106,-0.0113,-0.0145,-0.0141,-0.0158,-0.0191,-0.0192,-0.0121,-0.0114,-0.0108,-0.0052,-0.0172,0,0,0,0,0,0.0034,0.0042,0.0022,0.0029,0.0026,-0.0001,-0.0009,-0.0021,-0.004,-0.0048,-0.0075,-0.0103,-0.012,-0.0131,-0.0156,-0.0164,-0.018,-0.0162,-0.0155,-0.015,-0.0112,-0.0118,-0.0108,-0.022,-0.022,-0.022,0,0,0.0044,0.0039,0.0042,0.0034,0.0021,0.0027,-0.0005,-0.0008,-0.0,-0.0053,-0.0052,-0.0082,-0.0119,-0.0123,-0.013,-0.0146,-0.0135,-0.015,-0.0144,-0.0109,-0.0117,-0.0106,-0.0095,-0.022,-0.022,-0.022,0,0,0.0074,0.0065,0.0083,0.0076,0.0065,0.005,0.0053,0.003,0.0023,0.0013,-0.0014,-0.0018,-0.007,-0.0069,-0.0081,-0.0057,-0.0102,-0.0089,-0.0009,-0.0016,-0.0006,0.0003,-0.003,-0.0024,-0.0086,-0.0086,-0.0086,0,0.0086,0.0109,0.0085,0.0101,0.0104,0.0066,0.0088,0.0075,0.005,0.0067,0.0024,0.0009,-0.0031,0.0005,0.0004,-0.0035,-0.0065,-0.003,-0.0004,0.0005,0.0012,-0.0023,-0.0018,-0.0081,-0.0082,-0.0082,-0.0083,0,0.0133,0.0148,0.0159,0.017,0.0165,0.0179,0.016,0.017,0.0149,0.014,0.0161,0.0115,0.012,0.0089,0.005,0.009,0.0041,0.0007,-0.0011,0.003,-0.0012,-0.0008,-0.0075,-0.0076,-0.0078,-0.0079,0,0,0.017,0.0191,0.0194,0.0225,0.0207,0.0223,0.0241,0.0265,0.0312,0.0273,0.0328,0.0291,0.0279,0.0266,0.0222,0.0208,0.0211,0.0131,0.0128,0.0119,0.0172,0.0097,0.0092,0.0174,0.0176,0.0177,0.0112,0,0.0216,0.0281,0.0262,0.032,0.0357,0.0336,0.0366,0.0383,0.0376,0.0416,0.0394,0.0417,0.034,0.0352,0.0329,0.0255,0.0229,0.0231,0.0117,0.0115,0.006,0.0098,0.0121,0.0062,0.0115,0.0116,0.0116,0,0.0265,0.0313,0.0377,0.0439,0.0452,0.047,0.054,0.0554,0.0589,0.0595,0.0618,0.0591,0.0602,0.0508,0.0434,0.0433,0.0319,0.0241,0.0236,0.0148,0.0048,0.0031,0.0066,0.0121,0.0121,0.0121,0.012,0,0.0328,0.0392,0.0457,0.0472,0.0525,0.0561,0.058,0.0616,0.067,0.0711,0.0763,0.0754,0.0767,0.0653,0.0493,0.0465,0.0376,0.0316,0.0143,0.0134,0.0128,0.0116,0.0257,0.0257,0.0257,0.0257,0.0257,0,0.0381,0.0438,0.0502,0.0537,0.0654,0.0635,0.0737,0.0768,0.0821,0.0918,0.0861,0.0943,0.0803,0.0732,0.0553,0.0369,0.0426,0.0182,0.0129,0.0153,0.0146,0.018,0.0172,0.0254,0.0255,0.0256,0.0256,0,0.0418,0.0454,0.0557,0.0642,0.068,0.0755,0.0844,0.0923,0.095,0.1072,0.1103,0.1104,0.1011,0.0826,0.0642,0.0464,0.028,0.0184,0.0208,0.0159,0.0022,0.002,0.0011,0.0008,0.0006,0.0004,0.0002,0,0.0442,0.049,0.0638,0.0716,0.075,0.0856,0.0938,0.0996,0.1081,0.1186,0.1263,0.122,0.121,0.0894,0.058,0.0265,0.0234,0.007,0.0027,0.0057,0.0005,0.0006,0.0007,0.0041,0.004,0.0039,0.0038,0,0.0483,0.053,0.0619,0.0802,0.0909,0.1042,0.1149,0.1265,0.1345,0.146,0.1584,0.1576,0.1252,0.0962,0.0498,0.0281,0.0125,0.0036,0.0098,0.009,0.0077,0.0028,0.003,0.0029,0.003,0.0031,0.0031,0.0031,0.0517,0.0607,0.0734,0.0902,0.1027,0.1202,0.1344,0.1482,0.1673,0.1828,0.1797,0.1762,0.1381,0.0791,0.0416,0.0023,0.0032,-0.0094,-0.0086,-0.0079,-0.0073,-0.0091,-0.017,-0.0171,-0.0171,-0.0171,-0.0171,0,0.0599,0.0685,0.0826,0.1038,0.1179,0.1236,0.1472,0.1625,0.1882,0.1959,0.203,0.1662,0.129,0.0849,0.0254,-0.0108,-0.0115,-0.0209,-0.0125,-0.0114,-0.0106,-0.0098,-0.0204,-0.0204,-0.0205,-0.0206,0,0,0.0649,0.0802,0.0885,0.1132,0.1255,0.1487,0.1642,0.1864,0.1991,0.2092,0.2044,0.1914,0.1389,0.0962,0.0471,0.0145,0.0103,0.0075,0.0135,0.0302,0.0316,-0.0013,0.0012,0,0,0,0,0]}],[{"header":{"parameterUnit":"m.s-1","parameterCategory":2,"la1":30.2991,"la2":30.254,"lo1":-89.0895,"lo2":-89.0444,"dy":0.0017,"dx":0.0017,"nx":28,"ny":28,"refTime":"2025-06-11T03:00:00:Z","depth":"4","parameterNumber":2,"parameterNumberName":"U-component_of_CURRENTS"},"data":[0,0,0,0,0,0,0,0,0,0,0,0,0,0,0,0,0,0,0,0,0,0,0,0,0,0,0,0,0,0,0,0,0,0,0,0,0,0,0,0,0,0,0,0,0,0,0,0,0,0,0,0,0,0,0,0,0,0,0.1821,0.1822,0,0.1865,0.1865,0.1865,0.1916,0.1917,0.1918,0.1919,0.1919,0.1918,0.1917,0,0,0,0,0,0,0,0,0,0,0,0,0,0.1787,0.1787,0.1821,0.1822,0.1822,0.1865,0.1865,0.1865,0.1916,0.1917,0.1919,0.192,0.192,0.1918,0.1917,0,0,0,0,0,0,0,0,0,0,0,0,0,0.1811,0.1787,0.1821,0.1854,0.1858,0.1865,0.1865,0.1866,0.1916,0.1917,0.1919,0.192,0.192,0.1919,0.1917,0.188,0,0,0.1913,0.1913,0,0,0,0,0,0,0,0,0.181,0.1812,0.1849,0.1852,0.1856,0.1888,0.1853,0.1869,0.1916,0.1892,0.1919,0.1921,0.1905,0.1905,0.1908,0.188,0.188,0.1913,0.1912,0.1912,0.1911,0,0,0,0,0,0,0,0.1808,0.1811,0.1836,0.1849,0.1854,0.1869,0.1874,0.1857,0.1887,0.1894,0.1898,0.1906,0.1907,0.1909,0.1908,0.188,0.1913,0.1912,0.1911,0.1911,0.1917,0.1918,0,0,0,0,0,0,0.1805,0.1809,0.1835,0.1838,0.1838,0.1869,0.1874,0.1875,0.1889,0.1893,0.1905,0.1908,0.1911,0.191,0.1908,0.1957,0.1912,0.191,0.191,0.1916,0.1917,0.1918,0,0,0,0,0,0,0.1804,0.1806,0.1833,0.1827,0.1831,0.1868,0.1868,0.1875,0.1915,0.1898,0.1901,0.1943,0.1912,0.191,0.1929,0.1954,0.191,0.1909,0.1915,0.1916,0.1917,0.1996,0,0,0,0,0,0,0.1802,0.1805,0.1826,0.1826,0.1832,0.1849,0.1868,0.1875,0.1916,0.1922,0.193,0.193,0.1913,0.1931,0.1927,0.1952,0.1908,0.1913,0.1915,0.1917,0.1992,0.2,0.2007,0,0,0,0,0,0.1801,0.181,0.1826,0.1831,0.1851,0.1849,0.1854,0.1883,0.1917,0.1927,0.1948,0.1932,0.194,0.1931,0.1926,0.1951,0.1912,0.1915,0.1917,0.1989,0.1999,0.2007,0,0,0,0,0,0,0.1803,0.1816,0.1834,0.1848,0.1858,0.1859,0.1884,0.1903,0.1929,0.1954,0.1942,0.1942,0.198,0.1946,0.1936,0.1957,0.1923,0.1925,0.198,0.1989,0.1996,0.2063,0.1906,0,0,0,0,0,0.1813,0.1828,0.1835,0.1849,0.1862,0.1882,0.1898,0.1916,0.193,0.1947,0.1957,0.1965,0.1977,0.197,0.1978,0.1971,0.1999,0.1984,0.1991,0.1997,0.2049,0.2142,0.2164,0.1925,0.1925,0.1925,0,0,0.1818,0.1829,0.1839,0.1853,0.1872,0.1876,0.1896,0.1927,0.1936,0.1939,0.1976,0.2006,0.1989,0.2007,0.2016,0.1981,0.2065,0.2,0.2006,0.2055,0.2147,0.2171,0.2192,0.1926,0.1926,0.1926,0,0,0.1814,0.1849,0.1855,0.1861,0.1892,0.1904,0.192,0.1947,0.1972,0.2001,0.2023,0.2096,0.2064,0.2094,0.2091,0.2142,0.2123,0.2106,0.2173,0.2261,0.2284,0.2303,0.2314,0.2334,0.2083,0.2083,0.2083,0,0.1831,0.1819,0.1857,0.1856,0.1862,0.1918,0.1915,0.1941,0.1973,0.2024,0.2024,0.2128,0.2125,0.2183,0.2201,0.2168,0.2176,0.2139,0.2276,0.2297,0.2316,0.2322,0.2344,0.2087,0.2087,0.2087,0.2086,0,0.1807,0.1812,0.1817,0.1835,0.1856,0.186,0.1897,0.1951,0.2008,0.2061,0.2175,0.2209,0.229,0.2274,0.225,0.2367,0.2313,0.2298,0.2264,0.2346,0.2344,0.2366,0.2093,0.2092,0.2091,0.209,0,0,0.1796,0.1799,0.1803,0.1801,0.184,0.1851,0.1902,0.1971,0.2057,0.2136,0.2245,0.2319,0.2422,0.2431,0.243,0.2489,0.2613,0.2442,0.2445,0.2469,0.275,0.2538,0.254,0.2611,0.2617,0.2621,0.2675,0,0.1763,0.174,0.176,0.1758,0.1746,0.1821,0.1867,0.1963,0.2067,0.2195,0.2314,0.2435,0.2444,0.2512,0.2588,0.2622,0.2681,0.2597,0.2655,0.2657,0.2474,0.2564,0.2638,0.269,0.2695,0.2699,0.2701,0,0.1721,0.1706,0.1688,0.1718,0.1731,0.1769,0.1903,0.1952,0.2156,0.2259,0.2448,0.2551,0.2707,0.2689,0.2848,0.2784,0.2802,0.2808,0.281,0.2618,0.2488,0.2603,0.274,0.2737,0.2734,0.2731,0.2729,0,0.1661,0.1658,0.1644,0.1644,0.1699,0.1756,0.1825,0.2009,0.2087,0.2346,0.2459,0.2674,0.2775,0.2886,0.2937,0.291,0.3056,0.3018,0.2843,0.2824,0.2964,0.2943,0.3156,0.3156,0.3156,0.3156,0.3156,0,0.1581,0.1564,0.1632,0.1614,0.1664,0.1737,0.1855,0.1978,0.2171,0.2308,0.2517,0.2636,0.2835,0.2932,0.298,0.2966,0.3112,0.2896,0.2854,0.298,0.2961,0.2974,0.2953,0.3158,0.3158,0.3157,0.3157,0,0.1466,0.1511,0.1505,0.1585,0.1628,0.168,0.1836,0.1922,0.2132,0.231,0.2403,0.2632,0.2772,0.2893,0.3036,0.2976,0.3013,0.2965,0.3062,0.3018,0.2705,0.2687,0.2801,0.2795,0.279,0.2785,0.2781,0,0.1376,0.1356,0.1468,0.1501,0.1538,0.1634,0.1701,0.1903,0.2002,0.2289,0.2352,0.2552,0.2696,0.271,0.2854,0.2923,0.2894,0.2874,0.2844,0.2737,0.2685,0.2674,0.2664,0.2773,0.2771,0.277,0.2769,0,0.1176,0.126,0.1281,0.1371,0.1455,0.15,0.1624,0.1686,0.1934,0.2135,0.2286,0.2393,0.2501,0.2609,0.265,0.2705,0.2882,0.2817,0.2829,0.2802,0.2703,0.2654,0.265,0.275,0.2753,0.2754,0.2755,0,0.1061,0.1061,0.1148,0.1229,0.1299,0.1329,0.1429,0.1547,0.1672,0.2019,0.2062,0.2285,0.248,0.2493,0.2555,0.2571,0.2554,0.2487,0.2516,0.2538,0.243,0.2265,0.2175,0,0,0,0,0,0.0938,0.0943,0.0978,0.1066,0.1119,0.1179,0.1338,0.1456,0.1727,0.1785,0.193,0.2056,0.2176,0.227,0.224,0.2415,0.2533,0.2366,0.2461,0.2646,0.2668,0.2566,0,0,0,0,0,0,0.0867,0.0888,0.0929,0.0892,0.0914,0.0965,0.1069,0.1262,0.1319,0.1612,0.1679,0.1912,0.2034,0.2161,0.2188,0.222,0.2236,0.2512,0.2507,0.2634,0.2654,0.2671,0.2574,0,0,0,0,0]},{"header":{"parameterUnit":"m.s-1","parameterCategory":2,"la1":30.2991,"la2":30.254,"lo1":-89.0895,"lo2":-89.0444,"dy":0.0017,"dx":0.0017,"nx":28,"ny":28,"refTime":"2025-06-11T03:00:00:Z","depth":"4","parameterNumber":3,"parameterNumberName":"V-component_of_CURRENTS"},"data":[0,0,0,0,0,0,0,0,0,0,0,0,0,0,0,0,0,0,0,0,0,0,0,0,0,0,0,0,0,0,0,0,0,0,0,0,0,0,0,0,0,0,0,0,0,0,0,0,0,0,0,0,0,0,0,0,0,0,0.002,0.002,0,-0.0008,-0.0008,-0.0009,-0.003,-0.003,-0.003,-0.003,-0.0032,-0.0032,-0.0032,0,0,0,0,0,0,0,0,0,0,0,0,0,0.0018,0.0018,0.002,0.002,0.0019,-0.0008,-0.0008,-0.0009,-0.003,-0.003,-0.003,-0.003,-0.0032,-0.0032,-0.0032,0,0,0,0,0,0,0,0,0,0,0,0,0,0.0006,0.0018,0.002,0.0006,0.0005,-0.0008,-0.0008,-0.0009,-0.003,-0.003,-0.003,-0.003,-0.0032,-0.0032,-0.0032,-0.0029,0,0,-0.0032,-0.0032,0,0,0,0,0,0,0,0,0.0007,0.0006,0.0009,0.0007,0.0006,-0.0014,-0.001,-0.0014,-0.003,-0.0018,-0.003,-0.003,-0.0023,-0.0024,-0.0031,-0.0029,-0.0029,-0.0032,-0.0032,-0.0032,-0.0032,0,0,0,0,0,0,0,0.0008,0.0007,0.0008,0.0008,0.0007,-0.0011,-0.0012,-0.0011,-0.002,-0.0019,-0.002,-0.0021,-0.0024,-0.0031,-0.0031,-0.0029,-0.0032,-0.0032,-0.0032,-0.0032,-0.0013,-0.0012,0,0,0,0,0,0,0.0016,0.0008,0.0009,0.0007,0.0007,-0.001,-0.0012,-0.0009,-0.002,-0.0022,-0.0021,-0.0022,-0.0031,-0.0031,-0.0031,-0.0016,-0.0032,-0.0032,-0.0032,-0.0013,-0.0013,-0.0012,0,0,0,0,0,0,0.0016,0.0016,0.001,0.0007,0.0006,-0.001,-0.0006,-0.0009,-0.0013,-0.0022,-0.0024,-0.0021,-0.0031,-0.0031,-0.0021,-0.0017,-0.0032,-0.0032,-0.0014,-0.0013,-0.0012,0.0006,0,0,0,0,0,0,0.0016,0.0017,0.0021,0.0008,0.0006,0.0012,-0.0006,-0.001,-0.0013,-0.0015,-0.0022,-0.0023,-0.0031,-0.0021,-0.0021,-0.0017,-0.0032,-0.0014,-0.0013,-0.0013,0.0005,0.0007,0.0009,0,0,0,0,0,0.0016,0.0028,0.0021,0.0021,0.0013,0.0013,0.0011,-0.0002,-0.0013,-0.0008,-0.0013,-0.0023,-0.0015,-0.002,-0.0021,-0.0017,-0.0015,-0.0014,-0.0013,0.0004,0.0007,0.0009,0,0,0,0,0,0,0.003,0.0027,0.0019,0.0029,0.0025,0.001,0.0012,0.0002,-0.0001,-0.0002,-0.0014,-0.0014,-0.0007,-0.001,-0.0015,-0.0008,-0.0018,-0.0017,-0.0005,-0.0002,-0.0,0.001,-0.0032,0,0,0,0,0,0.0035,0.0043,0.0035,0.0043,0.0042,0.0027,0.0024,0.0016,0.0012,0.001,0.0006,0.0002,-0.0004,-0.0001,-0.0003,0.0006,-0.0021,0.0008,0.001,0.0012,0.0021,-0.0027,-0.0029,-0.0008,-0.0008,-0.0008,0,0,0.0041,0.0041,0.0045,0.0046,0.0039,0.0053,0.0025,0.0027,0.0039,0.0011,0.003,0.001,0.0,0.0006,0.0009,0.0006,-0.0008,0.0014,0.0015,0.0023,-0.0026,-0.0029,-0.0031,-0.0008,-0.0008,-0.0008,0,0,0.0067,0.0059,0.0078,0.0081,0.0079,0.007,0.0074,0.0067,0.0063,0.0075,0.0052,0.0038,0.0045,0.0029,0.0023,0.0039,0.0003,0.0038,0.006,0.0013,0.0011,0.0008,-0.0034,-0.0041,0.0042,0.0042,0.0042,0,0.0075,0.0104,0.0083,0.0106,0.0121,0.0084,0.0116,0.0103,0.0101,0.0099,0.009,0.0069,0.0055,0.0047,0.0049,0.0044,0.0011,0.0048,0.0015,0.0012,0.0009,-0.0034,-0.0042,0.0043,0.0043,0.0042,0.0042,0,0.012,0.0145,0.0158,0.0178,0.0185,0.0206,0.0192,0.019,0.0177,0.0161,0.015,0.0119,0.0108,0.0092,0.0076,0.0051,0.0032,0.0018,0.0004,0.0007,-0.0038,-0.0046,0.0044,0.0044,0.0043,0.0043,0,0,0.0136,0.0184,0.0189,0.0224,0.0232,0.0247,0.0256,0.0258,0.0267,0.0233,0.0237,0.02,0.0164,0.0154,0.0119,0.0072,0.0015,0.0039,0.0036,-0.0008,-0.0092,-0.0088,-0.0096,-0.0013,-0.0014,-0.0015,-0.0118,0,0.0184,0.0259,0.0262,0.033,0.0372,0.035,0.0371,0.0358,0.0336,0.0325,0.0255,0.025,0.0193,0.0189,0.0127,0.0042,-0.0005,0.0044,-0.0083,-0.0087,-0.0088,-0.0105,-0.0018,-0.0124,-0.0126,-0.0128,-0.0129,0,0.0228,0.0282,0.0367,0.0432,0.0446,0.0477,0.0501,0.0515,0.0467,0.0444,0.0392,0.0339,0.0262,0.0222,0.0064,0.0095,0.0011,-0.0061,-0.0067,-0.0072,-0.0097,-0.0127,-0.0144,-0.0143,-0.0141,-0.014,-0.0139,0,0.0268,0.035,0.043,0.0454,0.0514,0.0546,0.0571,0.0555,0.0578,0.0523,0.0518,0.0405,0.0364,0.0227,0.0064,0.0066,-0.0117,-0.0129,-0.0203,-0.0204,-0.0186,-0.0182,-0.0225,-0.0225,-0.0225,-0.0224,-0.0224,0,0.0321,0.0385,0.0463,0.0509,0.0607,0.0619,0.0697,0.0686,0.0685,0.071,0.0593,0.0571,0.0362,0.023,0.0079,-0.0098,-0.0108,-0.0201,-0.0231,-0.0176,-0.0169,-0.0193,-0.0187,-0.0228,-0.0227,-0.0227,-0.0226,0,0.0358,0.0404,0.0506,0.0597,0.0634,0.0706,0.0802,0.085,0.0825,0.0849,0.084,0.0688,0.0506,0.0292,0.0061,-0.0058,-0.0232,-0.0284,-0.0212,-0.0236,-0.029,-0.0283,-0.0371,-0.0372,-0.0373,-0.0373,-0.0374,0,0.0385,0.0443,0.0577,0.0647,0.0701,0.0811,0.0891,0.0922,0.0966,0.0921,0.0929,0.0768,0.0643,0.0305,0.0074,-0.022,-0.0252,-0.0336,-0.0312,-0.0286,-0.0306,-0.0298,-0.029,-0.0375,-0.0375,-0.0375,-0.0375,0,0.0442,0.0488,0.0575,0.0725,0.0834,0.096,0.1064,0.1103,0.1123,0.1102,0.1005,0.0822,0.0608,0.032,0.0085,-0.0122,-0.0286,-0.0343,-0.0343,-0.032,-0.0291,-0.0308,-0.03,-0.0377,-0.0377,-0.0377,-0.0376,0,0.0484,0.055,0.0661,0.0795,0.0926,0.1053,0.1117,0.1164,0.1203,0.1138,0.1102,0.0855,0.0704,0.0372,0.0154,-0.0058,-0.0098,-0.0148,-0.0158,-0.0159,-0.0071,-0.0,-0.0024,0,0,0,0,0,0.0526,0.0599,0.0721,0.0866,0.0994,0.1078,0.1201,0.1246,0.1258,0.121,0.1157,0.0957,0.0613,0.0445,0.0238,0.0148,-0.0132,-0.0099,-0.0194,-0.0389,-0.0386,-0.032,0,0,0,0,0,0,0.0549,0.0665,0.0724,0.0894,0.0989,0.115,0.123,0.1259,0.1221,0.1183,0.0994,0.0904,0.056,0.0717,0.0224,0.0159,0.0075,-0.0266,-0.027,-0.039,-0.0388,-0.0386,-0.0317,0,0,0,0,0]}]]